Location: Unspecified
(0.0000°N, 0.0000°E)
Time: 17:48:31
(UTC+00:00)

STARLINK 1064 - Pass Details

Date: 15 January 2020
Orbit: 549 x 551 km, 53.0° (Epoch: 17 January)

Event Time Altitude Azimuth Distance (km) Brightness Sun altitude
Rises 19:55:39 0° 304° (NW) 2,703 7.6 -24.7°
Reaches altitude 10° 19:58:11 10° 290° (WNW) 1,813 6.8 -25.2°
Maximum altitude 20:01:32 24° 236° (SW) 1,157 5.9 -26.0°
Drops below altitude 10° 20:04:55 10° 181° (S) 1,820 6.5 -26.8°
Sets 20:07:28 0° 167° (SSE) 2,716 7.3 -27.4°
